EHI
0 0 0 0 0 0 0 0 0 0 0 0 0 0 0 0 0 0 0 0 0 0 0 0 0 0 0 0 0 0 0 0 0 0 0 0 0 0
0 0 0 0 0 0 0 0 0 0 0 0 0 0 0 0 0 0 0 0 0 0 0 0 0 0 0 0 0 0 0 0 0 0 0 0 0 0
0 0 0 0 0 0 0 0 0 0 0 0 0 0 0 0 0 0 0 0 0 0 0 0 0 0 0 0 0 0 0 0 0 0 0 0 0 0
0 0 0 0 0 0 0 0 0 0 0 0 0 0 0 0 0 0 0 0 0 0 0 0 0 0 0 0 0 0 0 0 0 0 0 0 0 0
0 0 0 0 0 0 0 0 0 0 0 0 0 0 0 0 0 0 0 0 0 0 0 0 0 0 0 0 0 0 0 0 0 0 0 0 0 0
0 0 0 0 0 0 0 0 0 0 0 0 0 0 0 0 0 0 0 0 0 0 0 0 0 0 0 0 0 0 0 0 0 0 0 0 0 0
0 0 0 0 0 0 0 0 0 0 0 0 0 0 0 0 0 0 0 0 0 0 0 0 0 0 0 0 0 0 0 0 0 0 0 0 0 0
0 0 0 0 0 0 0 0 0 0 0 0 0 0 0 0 0 0 0 0 0 0 0 0 0 0 0 0 0 0 0 0 0 0 0 0 0 0
0 0 0 0 0 0 0 0 0 0 0 0 0 0 0 0 0 0 0 0 0 0 0 0 0 0 0 0 0 0 0 0 0 0 0 0 0 0
0 0 0 0 0 0 0 0 0 0 0 0 0 0 0 0 0 0 0 0 0 0 0 0 0 0 0 0 0 0 0 0 0 0 0 0 0 0
0 0 0 0 0 0 0 0 0 0 0 0 0 0 0 0 0 0 0 0 0 0 0 0 0 0 0 0 0 0 0 0 0 0 0 0 0 0
0 0 0 0 0 0 0 0 0 0 0 0 0 0 0 0 0 0 0 0 0 0 0 0 0 0 0 0 0 0 0 0 0 0 0 0 0 0
0 0 0 0 0 0 0 0 0 0 0 0 0 0 0 0 0 0 0 0 0 0 0 0 0 0 0 0 0 0 0 0 0 0 0 0 0 0
0 0 0 0 0 0 0 0 0 0 0 0 0 0 0 0 0 0 0 0 0 0 0 0 0 0 0 0 0 0 0 0 0 0 0 0 0 0
0 0 0 0 0 0 0 0 0 0 0 0 0 0 0 0 0 0 0 0 0 0 0 0 0 0 0 0 0 0 0 0 0 0 0 0 0 0
0 0 0 0 0 0 0 0 0 0 0 0 0 0 0 0 0 0 0 0 0 0 0 0 0 0 0 0 0 0 0 0 0 0 0 0 0 0
0 0 0 0 0 0 0 0 0 0 0 0 0 0 0 0 0 0 0 0 0 0 0 0 0 0 0 0 0 0 0 0 0 0 0 0 0 0
0 0 0 0 0 0 0 0 0 0 0 0 0 0 0 0 0 0 0 0 0 0 0 0 0 0 0 0 0 0 0 0 0 0 0 0 0 0
0 0 0 0 0 0 0 0 0 0 0 0 0 0 0 0 0 0 0 0 0 0 0 0 0 0 0 0 0 0 0 0 0 0 0 0 0 0
0 0 0 0 0 0 0 0 0 0 0 0 0 0 0 0 0 0 0 0 0 0 0 0 0 0 0 0 0 0 0 0 0 0 0 0 0 0
0 0 0 0 0 0 0 0 0 0 0 0 0 0 0 0 0 0 0 0 0 0 0 0 0 0 0 0 0 0 0 0 0 0 0 0 0 0
0 0 0 0 0 0 0 0 0 0 0 0 0 0 0 0 0 0 0 0 0 0 0 0 0 0 0 0 0 0 0 0 0 0 0 0 0 0
0 0 0 0 0 0 0 0 0 0 0 0 0 0 0 0 0 0 0 0 0 0 0 0 0 0 0 0 0 0 0 0 0 0 0 0 0 0
Wind_Speed
4 4 3 2 3 2 3 4 5 3 3 3 2 2 2 2 3 2 2 4 4 3 3 3 4 4 4 5 5 6 7 8 8 9 10 10 11 12
3 4 3 2 2 3 3 2 2 4 3 2 2 2 2 2 3 2 2 4 4 4 4 4 4 5 5 5 6 7 7 8 9 10 11 11 11 12
3 4 4 3 3 2 3 2 2 3 3 1 1 1 2 2 1 1 2 2 3 5 5 5 5 5 5 5 6 7 8 9 10 11 11 12 12 13
5 4 5 4 4 3 3 3 3 3 4 3 2 2 2 2 2 2 2 2 2 4 6 6 6 6 6 6 7 8 8 9 10 11 12 12 13 13
5 5 5 5 5 4 4 4 3 3 3 3 3 2 1 1 1 1 1 1 2 3 5 6 6 6 6 8 8 8 9 10 10 11 11 12 13 13
5 5 6 6 6 6 5 5 4 4 4 3 3 2 2 2 2 2 1 1 2 2 3 4 6 7 8 9 8 9 9 10 11 11 12 12 13 13
4 4 5 6 8 7 5 5 6 5 4 4 3 2 2 2 3 2 2 1 2 2 2 2 3 3 4 7 8 9 10 11 11 12 12 13 13 14
4 4 4 5 7 9 9 8 8 7 6 5 4 4 4 4 3 3 2 1 2 2 2 3 2 3 4 4 8 10 11 11 11 12 12 13 13 13
4 4 3 4 5 4 6 6 7 9 9 7 6 6 5 5 5 4 4 4 4 2 1 3 2 4 4 5 10 11 11 12 11 12 12 13 13 14
4 4 4 4 4 5 4 3 3 5 6 5 6 6 6 5 6 5 4 3 2 2 2 3 2 3 3 4 9 11 11 11 11 11 12 13 13 14
3 3 4 4 6 7 5 4 3 3 5 6 7 6 7 8 6 3 3 2 3 3 3 3 2 2 3 4 5 9 9 10 11 11 12 13 13 12
2 3 5 5 6 7 5 4 4 4 3 3 3 4 4 5 7 5 5 3 2 3 3 2 2 1 3 2 2 3 4 8 11 11 12 12 12 7
2 2 2 5 6 6 5 4 5 4 3 3 3 2 2 2 3 4 4 5 4 4 3 3 2 2 3 4 3 3 3 4 4 6 9 12 12 9
2 2 2 4 4 5 4 4 5 4 2 2 2 3 3 3 3 3 4 4 4 5 4 4 3 3 3 4 5 3 3 3 4 4 4 8 9 11
2 3 3 3 3 2 3 4 3 2 2 3 3 3 3 3 2 2 2 2 2 3 3 4 4 3 3 5 5 4 4 4 4 3 3 4 4 4
1 1 1 2 1 1 1 1 1 2 3 3 2 2 2 2 2 2 2 2 2 2 2 4 4 4 4 5 5 6 4 4 3 4 5 5 5 4
1 1 0 0 0 0 0 0 1 1 2 1 2 2 2 2 2 2 2 2 3 3 3 2 2 3 5 5 5 6 5 5 5 4 4 6 6 5
1 1 1 1 2 2 2 1 1 2 2 2 2 2 2 3 2 2 2 3 3 3 3 2 1 1 2 4 7 6 5 5 4 4 4 6 7 5
1 1 2 2 2 2 2 2 2 2 2 2 3 3 2 2 2 3 3 3 3 3 3 3 2 2 3 5 4 6 5 4 4 4 4 5 7 7
0 1 2 2 2 2 2 2 2 2 2 2 2 3 3 3 3 3 3 4 4 3 3 3 3 4 5 5 5 5 6 5 5 5 5 5 6 8
1 1 1 1 2 2 2 2 2 3 3 2 3 3 3 3 3 3 3 5 4 3 4 4 5 5 3 2 4 5 4 6 7 6 5 5 5 4
1 1 1 1 2 2 2 2 2 3 3 3 3 3 3 3 3 4 3 3 3 4 4 4 3 2 2 4 5 6 6 5 6 9 10 9 5 4
2 2 2 2 2 1 1 2 3 3 3 3 3 3 3 3 3 3 3 4 3 3 3 3 2 2 3 4 5 5 6 6 4 4 5 8 11 13
Wind_Direction
187 181 179 184 175 174 167 166 161 181 220 219 208 194 185 177 199 180 193 228 236 253 269 284 286 286 287 287 292 296 299 302 301 300 301 301 300 301
181 176 179 180 174 161 164 167 163 168 197 210 207 185 173 176 199 183 204 231 232 245 257 267 272 274 277 283 287 291 294 294 294 295 296 298 299 300
179 178 186 175 175 166 160 164 168 158 186 222 186 163 166 182 201 200 209 217 228 247 257 262 267 269 270 276 282 286 288 289 290 291 294 296 297 298
191 186 194 181 179 175 175 180 181 175 173 198 195 191 196 193 194 210 225 225 226 249 256 261 264 266 269 275 280 283 286 287 288 290 292 293 294 294
195 197 200 187 191 183 182 188 185 179 169 174 193 188 193 177 176 220 231 234 245 250 254 258 261 265 272 277 280 280 280 282 284 287 288 290 290 291
202 203 201 195 195 186 185 189 179 170 165 172 185 192 197 183 167 196 244 233 257 259 249 255 262 270 274 274 276 277 275 277 279 281 284 286 286 287
205 208 209 202 199 194 189 185 180 176 174 180 191 187 193 186 198 190 217 254 264 235 234 245 251 252 261 270 276 274 272 275 277 279 282 284 285 285
205 209 209 203 205 206 207 200 193 185 185 186 195 200 209 201 188 186 192 194 267 232 211 260 230 244 246 242 263 272 274 276 277 278 280 282 284 285
202 199 206 205 201 195 205 208 212 212 202 190 193 204 203 197 184 191 199 207 229 224 210 263 240 249 247 256 269 273 275 275 275 278 281 283 284 286
201 200 202 199 198 188 181 191 213 216 211 205 203 204 202 192 189 196 204 217 242 233 196 245 244 251 263 253 266 270 274 276 278 281 284 287 288 287
208 205 201 202 206 197 182 192 216 227 223 216 215 215 214 210 193 170 177 195 250 245 202 219 245 268 270 260 259 269 277 281 283 287 289 290 289 289
218 216 212 212 213 207 194 192 218 227 203 203 215 222 217 214 210 196 187 200 224 248 209 202 227 281 293 266 251 261 275 281 286 289 292 294 292 291
216 217 216 216 220 219 214 208 224 215 190 191 200 204 199 200 207 204 196 196 207 230 207 186 214 228 250 282 280 260 259 270 276 279 287 291 289 287
214 209 210 218 226 229 230 224 226 218 185 180 195 208 209 212 216 214 214 216 219 226 212 195 213 224 247 272 278 272 265 260 262 271 272 282 285 287
203 202 217 227 233 237 233 232 229 207 191 199 212 221 213 210 205 209 220 226 238 242 223 213 214 225 232 254 270 274 286 277 255 258 267 268 269 273
196 184 212 220 220 237 255 248 226 206 202 210 211 212 191 192 207 203 215 218 239 263 240 225 221 217 237 249 257 270 266 266 270 271 278 279 270 257
170 103 86 187 201 215 231 237 228 214 221 211 204 205 206 213 226 216 211 212 231 250 264 252 235 234 235 237 254 256 260 264 261 269 278 282 274 261
202 186 216 222 222 223 225 237 235 231 224 218 215 212 216 219 228 227 225 224 237 244 247 249 255 300 299 265 233 246 255 260 265 266 264 275 281 272
209 203 216 222 226 222 222 230 239 236 227 221 219 215 215 218 221 230 233 233 238 242 244 234 223 226 264 280 269 230 242 267 276 275 263 259 272 278
231 222 230 229 228 228 226 228 237 236 227 224 224 222 215 213 221 228 231 233 241 246 250 241 225 221 235 258 271 273 255 255 263 272 276 275 271 278
278 259 249 242 237 230 229 229 233 236 231 225 229 224 216 212 224 232 237 248 251 245 249 251 244 250 248 252 271 276 272 261 261 263 269 280 285 284
292 280 270 256 251 240 238 237 238 235 228 228 232 225 220 218 226 233 236 241 246 248 253 260 259 253 228 242 261 275 285 289 285 280 268 254 253 260
301 292 283 268 263 259 247 242 242 244 235 230 230 226 221 227 232 233 238 241 245 250 256 261 262 249 248 247 260 271 279 288 291 295 284 277 273 270